Weather History for PHOG - March, 2013

Change the Weather History Date:

Friday, March 8, 2013

  Actual Average Record
Temperature  
Mean Temperature 70 °F 73 °F  
Max Temperature 81 °F 81 °F 88 °F (2006)
Min Temperature 58 °F 64 °F 56 °F (1950)
Degree Days  
Heating Degree Days 0 0  
Month to date heating degree days 0 0  
Since 1 July heating degree days 0 0  
Cooling Degree Days 5 7  
Month to date cooling degree days 62 56  
Year to date cooling degree days 495 465  
Growing Degree Days 19 (Base 50)    
Moisture  
Dew Point 61 °F    
Average Humidity 74    
Maximum Humidity 93    
Minimum Humidity 54    
Precipitation  
Precipitation 0.00 in 0.08 in 1.14 in (2012)
Month to date precipitation 0.03 0.59  
Year to date precipitation 4.98 5.35  
Snow  
Snow 0.00 in - - ()
Month to date snowfall 0.0  
Since 1 July snowfall 0.0  
Snow Depth 0.00 in    
Sea Level Pressure  
Sea Level Pressure 29.99 in    
Wind  
Wind Speed 6 mph (SE)    
Max Wind Speed 15 mph    
Max Gust Speed 18 mph    
Visibility 10 miles    
Events      
T = Trace of Precipitation, MM = Missing Value Source: NWS Daily Summary

Daily Weather History Graph

Daily Weather History Graph

Search for Another Location

Airport or City:

Trip Planner

Search our weather history database for the weather conditions in past years. The results will help you decide how hot, cold, wet, or windy it might be!

Date:

Astronomy

Mar. 08, 2013 Rise Set
Actual Time 6:39 AM HST 6:33 PM HST
Civil Twilight 6:17 AM HST 6:55 PM HST
Nautical Twilight 5:52 AM HST 7:20 PM HST
Astronomical Twilight 5:26 AM HST 7:46 PM HST
Moon 4:12 AM HST (3/8) 3:56 PM HST (3/8)
Length of Visible Light 12h 37m
Length of Day
11h 53m
Waning Crescent, 10% of the Moon is Illuminated
Mar 8
Waning Crescent
Mar 11
New
Mar 19
First Quarter
Mar 26
Full
Apr 2
Last Quarter

Hourly Weather History & Observations

Time (HST) Temp. Dew Point Humidity Pressure Visibility Wind Dir Wind Speed Gust Speed Precip Events Conditions
12:54 AM 63.0 °F 60.1 °F 90% 30.05 in 10.0 mi SE 3.5 mph - N/A   Clear
1:54 AM 62.1 °F 59.0 °F 90% 30.03 in 10.0 mi South 4.6 mph - N/A   Clear
2:54 AM 62.1 °F 59.0 °F 90% 30.01 in 10.0 mi South 8.1 mph - N/A   Clear
3:54 AM 60.1 °F 57.0 °F 90% 29.99 in 10.0 mi Calm Calm - N/A   Clear
4:54 AM 60.1 °F 57.0 °F 90% 29.99 in 10.0 mi South 3.5 mph - N/A   Clear
5:54 AM 57.9 °F 55.9 °F 93% 29.99 in 10.0 mi SSE 5.8 mph - N/A   Clear
6:54 AM 59.0 °F 55.9 °F 90% 30.00 in 10.0 mi SSE 6.9 mph - N/A   Clear
7:54 AM 64.9 °F 60.1 °F 84% 30.01 in 10.0 mi Calm Calm - N/A   Clear
8:54 AM 73.0 °F 63.0 °F 71% 30.03 in 10.0 mi Calm Calm - N/A   Clear
9:54 AM 75.0 °F 63.0 °F 66% 30.03 in 10.0 mi SSW 8.1 mph - N/A   Partly Cloudy
10:54 AM 77.0 °F 64.0 °F 64% 30.02 in 10.0 mi NNW 5.8 mph - N/A   Partly Cloudy
11:54 AM 78.1 °F 64.9 °F 64% 30.00 in 10.0 mi North 9.2 mph - N/A   Scattered Clouds
12:54 PM 77.0 °F 66.0 °F 69% 29.97 in 10.0 mi NNE 15.0 mph - N/A   Scattered Clouds
1:54 PM 79.0 °F 64.9 °F 62% 29.95 in 10.0 mi NE 11.5 mph - N/A   Scattered Clouds
2:54 PM 79.0 °F 62.1 °F 56% 29.93 in 10.0 mi NE 9.2 mph - N/A   Scattered Clouds
3:54 PM 79.0 °F 61.0 °F 54% 29.92 in 10.0 mi NNE 6.9 mph - N/A   Scattered Clouds
4:54 PM 78.1 °F 61.0 °F 56% 29.92 in 10.0 mi NE 5.8 mph - N/A   Partly Cloudy
5:54 PM 75.0 °F 60.1 °F 60% 29.93 in 10.0 mi North 5.8 mph - N/A   Partly Cloudy
6:54 PM 73.9 °F 60.1 °F 62% 29.95 in 10.0 mi NNW 3.5 mph - N/A   Partly Cloudy
7:54 PM 68.0 °F 63.0 °F 84% 29.97 in 10.0 mi South 5.8 mph - N/A   Clear
8:54 PM 66.9 °F 62.1 °F 84% 29.99 in 10.0 mi South 4.6 mph - N/A   Partly Cloudy
9:54 PM 68.0 °F 63.0 °F 84% 30.00 in 10.0 mi SW 5.8 mph - N/A   Partly Cloudy
10:54 PM 69.1 °F 64.0 °F 84% 30.00 in 10.0 mi SSW 4.6 mph - N/A   Clear
11:54 PM 68.0 °F 64.0 °F 87% 29.99 in 10.0 mi SW 4.6 mph - N/A   Partly Cloudy